カタログに戻る

STARLINK-4165

運用中通信VLEO
NORAD 53286·PAYLOAD·🇺🇸 United States

打ち上げ Jul 24, 2022 から Cape Canaveral Space Force Station

Loading…

次のパス (今後24時間)

TLE

最新Source: CelesTrak SupGP

元期: Sep 14, 2026, 22:04 UTC

1 53286C 22086AW  26257.91993056  .00023936  00000+0  76982-3 0  2570
2 53286  53.1586  41.8403 0001102  82.0838  79.9093 15.31686300    18

AllMySatでSTARLINK-4165をリアルタイム追跡

Download on the App Store